Location: Austin
(30.3000°N, 97.7500°W)
Time: 02:09:48
(UTC-06:00)

Fermi - Visible Passes

Search period start: 13 November 2025 00:00
Search period end: 23 November 2025 00:00
Orbit: 493 x 504 km, 25.6° (Epoch: 13 November)

Date Brightness Start Highest point End Pass type
(mag) Time Alt. Az. Time Alt. Az. Time Alt. Az.
13 Nov 4.6 18:59:02 10° WSW 19:02:39 36° S 19:03:32 32° SE visible
14 Nov 4.6 18:35:16 10° WSW 18:38:54 37° S 18:41:10 19° ESE visible
14 Nov 6.9 20:15:25 10° WSW 20:15:40 11° WSW 20:15:40 11° WSW visible
15 Nov 4.7 18:11:28 10° WSW 18:15:07 38° S 18:18:46 10° ESE visible
15 Nov 6.0 19:51:40 10° WSW 19:53:19 22° WSW 19:53:19 22° WSW visible
16 Nov 4.9 19:27:53 10° WSW 19:30:58 34° SSW 19:30:58 34° SSW visible
17 Nov 4.8 19:04:07 10° WSW 19:07:41 35° S 19:08:39 30° SSE visible
18 Nov 4.9 18:40:19 10° WSW 18:43:51 34° S 18:46:23 16° SE visible
19 Nov 5.1 18:16:31 10° WSW 18:20:01 32° S 18:23:32 10° SE visible
19 Nov 6.5 19:57:45 10° SW 19:58:43 13° SW 19:58:43 13° SW visible
20 Nov 5.2 17:52:41 10° WSW 17:56:09 31° S 17:59:37 10° SE visible
20 Nov 6.2 19:34:05 10° SW 19:36:08 14° SSW 19:36:37 14° SSW visible
21 Nov 6.3 19:10:27 10° SW 19:12:14 13° SSW 19:14:02 10° S visible
22 Nov 6.5 18:46:53 10° SW 18:48:20 12° SSW 18:49:46 10° S visible
